GFSNW_prec_precacc24_324.txt.gz
Total_Precipitation_Accumulation
0.04 0.04 0.04 0.03 0.01 0.00 0.00 0.00 0.00 0.00 0.00 0.00 0.00 0.00 0.00 0.00 0.00 0.00 0.00 0.00 0.02 0.07 0.04 0.05 0.01 0.03 0.07 0.00 0.06 0.09 0.09 0.21 0.09 0.17 0.31 0.29 0.46 0.32 0.43 0.45 0.62 0.44 0.11 0.12
0.04 0.05 0.04 0.05 0.03 0.00 0.01 0.00 0.00 0.00 0.00 0.00 0.00 0.00 0.00 0.00 0.00 0.00 0.00 0.00 0.02 0.04 0.04 0.11 0.01 0.01 0.00 0.00 0.06 0.15 0.08 0.15 0.14 0.18 0.24 0.16 0.38 0.43 0.35 0.35 0.59 0.47 0.18 0.13
0.05 0.05 0.05 0.07 0.06 0.00 0.00 0.00 0.00 0.00 0.00 0.00 0.00 0.02 0.00 0.00 0.00 0.00 0.00 0.00 0.01 0.03 0.01 0.01 0.02 0.01 0.01 0.00 0.02 0.02 0.03 0.12 0.20 0.20 0.33 0.26 0.17 0.20 0.16 0.23 0.37 0.40 0.20 0.08
0.06 0.05 0.05 0.09 0.09 0.00 0.00 0.00 0.00 0.00 0.00 0.00 0.00 0.01 0.00 0.00 0.01 0.00 0.00 0.00 0.00 0.04 0.06 0.02 0.00 0.00 0.01 0.00 0.01 0.00 0.01 0.09 0.12 0.13 0.17 0.11 0.09 0.11 0.19 0.16 0.25 0.33 0.31 0.14
0.06 0.06 0.06 0.09 0.15 0.02 0.01 0.03 0.07 0.08 0.02 0.00 0.00 0.00 0.00 0.02 0.02 0.01 0.00 0.01 0.00 0.00 0.03 0.05 0.03 0.02 0.04 0.02 0.01 0.01 0.01 0.05 0.11 0.19 0.15 0.09 0.05 0.08 0.15 0.21 0.21 0.22 0.25 0.24
0.06 0.06 0.07 0.10 0.19 0.10 0.05 0.10 0.15 0.21 0.04 0.00 0.02 0.00 0.01 0.02 0.03 0.02 0.00 0.00 0.01 0.00 0.00 0.00 0.00 0.00 0.00 0.01 0.07 0.02 0.01 0.04 0.09 0.12 0.10 0.15 0.06 0.15 0.17 0.25 0.31 0.27 0.21 0.23
0.07 0.08 0.08 0.11 0.15 0.21 0.10 0.16 0.19 0.22 0.05 0.00 0.00 0.01 0.01 0.00 0.00 0.03 0.00 0.00 0.01 0.00 0.00 0.00 0.00 0.00 0.00 0.00 0.02 0.00 0.01 0.03 0.11 0.10 0.10 0.06 0.09 0.10 0.11 0.14 0.24 0.27 0.23 0.17
0.07 0.08 0.09 0.13 0.14 0.28 0.16 0.12 0.21 0.25 0.14 0.01 0.00 0.00 0.01 0.00 0.00 0.00 0.00 0.00 0.00 0.00 0.00 0.00 0.00 0.00 0.00 0.00 0.00 0.00 0.00 0.02 0.09 0.07 0.04 0.05 0.08 0.07 0.12 0.14 0.16 0.16 0.11 0.08
0.08 0.08 0.11 0.12 0.12 0.31 0.15 0.08 0.19 0.28 0.22 0.01 0.00 0.01 0.02 0.03 0.01 0.00 0.00 0.00 0.00 0.00 0.00 0.01 0.00 0.01 0.00 0.00 0.00 0.00 0.00 0.00 0.03 0.06 0.05 0.03 0.04 0.04 0.12 0.12 0.13 0.06 0.04 0.04
0.10 0.10 0.10 0.11 0.19 0.25 0.14 0.07 0.13 0.23 0.24 0.02 0.01 0.05 0.08 0.05 0.05 0.05 0.00 0.00 0.00 0.00 0.00 0.01 0.01 0.01 0.00 0.00 0.00 0.00 0.00 0.00 0.00 0.02 0.03 0.04 0.04 0.01 0.03 0.07 0.07 0.01 0.03 0.04
0.09 0.10 0.12 0.14 0.26 0.13 0.13 0.05 0.03 0.15 0.22 0.04 0.00 0.01 0.03 0.11 0.13 0.15 0.03 0.01 0.00 0.00 0.01 0.04 0.02 0.01 0.00 0.01 0.02 0.01 0.00 0.00 0.00 0.01 0.02 0.04 0.01 0.00 0.01 0.02 0.01 0.01 0.02 0.03
0.08 0.12 0.15 0.21 0.14 0.11 0.10 0.04 0.02 0.12 0.22 0.06 0.00 0.01 0.01 0.03 0.05 0.16 0.08 0.03 0.03 0.04 0.05 0.06 0.06 0.04 0.04 0.03 0.04 0.02 0.02 0.02 0.02 0.01 0.03 0.03 0.02 0.02 0.03 0.02 0.02 0.01 0.02 0.01
0.12 0.16 0.18 0.14 0.12 0.09 0.07 0.03 0.02 0.07 0.09 0.02 0.00 0.00 0.00 0.00 0.00 0.02 0.17 0.07 0.07 0.08 0.17 0.16 0.09 0.10 0.06 0.05 0.06 0.06 0.05 0.02 0.05 0.05 0.04 0.03 0.04 0.03 0.02 0.01 0.01 0.01 0.02 0.01
0.20 0.17 0.14 0.13 0.10 0.04 0.02 0.02 0.02 0.05 0.03 0.01 0.00 0.00 0.00 0.00 0.00 0.00 0.03 0.09 0.12 0.17 0.10 0.12 0.11 0.12 0.12 0.11 0.07 0.08 0.06 0.03 0.04 0.07 0.04 0.04 0.05 0.02 0.01 0.00 0.01 0.00 0.00 0.01
0.23 0.16 0.13 0.12 0.06 0.03 0.01 0.01 0.00 0.01 0.02 0.02 0.00 0.02 0.03 0.00 0.00 0.00 0.00 0.00 0.02 0.02 0.06 0.10 0.13 0.12 0.13 0.12 0.06 0.08 0.06 0.08 0.07 0.08 0.07 0.06 0.01 0.02 0.02 0.01 0.00 0.01 0.03 0.02
0.25 0.17 0.14 0.10 0.06 0.03 0.02 0.03 0.02 0.03 0.05 0.14 0.02 0.03 0.03 0.00 0.00 0.00 0.00 0.00 0.00 0.02 0.08 0.11 0.12 0.13 0.20 0.16 0.07 0.10 0.06 0.07 0.11 0.08 0.04 0.06 0.06 0.01 0.02 0.02 0.02 0.02 0.04 0.02
0.28 0.18 0.18 0.13 0.08 0.04 0.02 0.02 0.03 0.02 0.07 0.14 0.06 0.04 0.01 0.00 0.00 0.00 0.00 0.00 0.00 0.02 0.09 0.12 0.11 0.09 0.10 0.12 0.11 0.08 0.06 0.07 0.11 0.06 0.04 0.04 0.03 0.04 0.02 0.03 0.02 0.02 0.01 0.01
0.29 0.28 0.25 0.16 0.11 0.05 0.03 0.00 0.00 0.01 0.07 0.09 0.05 0.01 0.00 0.00 0.00 0.00 0.00 0.00 0.02 0.04 0.07 0.08 0.07 0.04 0.03 0.07 0.09 0.06 0.04 0.03 0.04 0.03 0.08 0.11 0.07 0.04 0.02 0.03 0.02 0.01 0.01 0.00
0.38 0.40 0.29 0.17 0.06 0.04 0.04 0.01 0.00 0.00 0.03 0.09 0.03 0.01 0.00 0.00 0.00 0.00 0.00 0.00 0.06 0.09 0.06 0.08 0.04 0.04 0.08 0.14 0.10 0.08 0.09 0.11 0.10 0.05 0.03 0.04 0.05 0.04 0.04 0.03 0.02 0.03 0.02 0.02
0.49 0.45 0.30 0.18 0.06 0.08 0.06 0.03 0.04 0.01 0.00 0.00 0.01 0.01 0.00 0.00 0.00 0.00 0.00 0.01 0.07 0.10 0.09 0.03 0.02 0.08 0.11 0.11 0.13 0.13 0.11 0.10 0.10 0.07 0.05 0.05 0.03 0.03 0.04 0.05 0.06 0.07 0.07 0.05
0.51 0.39 0.23 0.17 0.12 0.09 0.05 0.03 0.00 0.00 0.00 0.00 0.00 0.00 0.00 0.00 0.01 0.01 0.01 0.02 0.06 0.14 0.12 0.05 0.04 0.06 0.08 0.07 0.07 0.08 0.09 0.09 0.10 0.12 0.12 0.12 0.12 0.09 0.06 0.04 0.04 0.05 0.05 0.06
0.43 0.29 0.23 0.14 0.10 0.08 0.03 0.01 0.00 0.00 0.01 0.01 0.00 0.00 0.00 0.00 0.03 0.03 0.03 0.04 0.10 0.13 0.10 0.03 0.04 0.08 0.07 0.05 0.06 0.06 0.07 0.08 0.08 0.09 0.09 0.08 0.08 0.09 0.08 0.08 0.06 0.05 0.06 0.05
0.42 0.31 0.22 0.12 0.07 0.05 0.02 0.01 0.01 0.01 0.01 0.01 0.00 0.00 0.00 0.02 0.03 0.04 0.05 0.08 0.10 0.12 0.04 0.05 0.09 0.07 0.04 0.04 0.04 0.03 0.04 0.05 0.05 0.05 0.06 0.07 0.06 0.06 0.07 0.07 0.06 0.06 0.05 0.05
0.45 0.31 0.21 0.11 0.07 0.04 0.05 0.05 0.05 0.03 0.01 0.00 0.01 0.01 0.01 0.02 0.03 0.04 0.06 0.08 0.05 0.08 0.05 0.07 0.09 0.06 0.04 0.03 0.02 0.02 0.02 0.02 0.03 0.03 0.04 0.04 0.04 0.04 0.04 0.06 0.06 0.06 0.05 0.04
0.38 0.28 0.18 0.09 0.06 0.07 0.06 0.03 0.02 0.01 0.00 0.02 0.01 0.02 0.02 0.02 0.03 0.04 0.04 0.04 0.04 0.05 0.07 0.07 0.06 0.03 0.03 0.02 0.02 0.02 0.02 0.02 0.03 0.03 0.03 0.04 0.04 0.04 0.03 0.04 0.06 0.06 0.05 0.04
0.27 0.21 0.13 0.11 0.12 0.10 0.04 0.02 0.02 0.01 0.01 0.02 0.02 0.02 0.02 0.03 0.02 0.01 0.03 0.03 0.04 0.06 0.05 0.06 0.04 0.02 0.02 0.02 0.02 0.03 0.03 0.04 0.03 0.03 0.04 0.05 0.05 0.06 0.05 0.05 0.05 0.06 0.06 0.04
0.17 0.11 0.12 0.13 0.09 0.05 0.03 0.02 0.01 0.00 0.01 0.00 0.01 0.01 0.02 0.03 0.02 0.03 0.03 0.04 0.06 0.04 0.04 0.03 0.03 0.05 0.03 0.02 0.02 0.02 0.02 0.03 0.02 0.02 0.03 0.05 0.05 0.03 0.03 0.04 0.04 0.05 0.05 0.04

GFSNW_prec_precacc24_327.txt.gz
Total_Precipitation_Accumulation
0.03 0.04 0.04 0.03 0.02 0.00 0.00 0.00 0.00 0.00 0.00 0.00 0.00 0.00 0.00 0.00 0.00 0.00 0.00 0.00 0.01 0.05 0.03 0.03 0.01 0.03 0.06 0.00 0.06 0.08 0.09 0.19 0.07 0.16 0.29 0.26 0.37 0.30 0.44 0.47 0.64 0.46 0.13 0.14
0.04 0.04 0.04 0.05 0.03 0.00 0.00 0.00 0.00 0.00 0.00 0.00 0.00 0.00 0.00 0.00 0.00 0.00 0.00 0.00 0.01 0.03 0.01 0.07 0.00 0.01 0.00 0.00 0.05 0.15 0.08 0.13 0.08 0.09 0.20 0.11 0.23 0.22 0.28 0.35 0.62 0.49 0.21 0.14
0.05 0.05 0.04 0.06 0.06 0.00 0.00 0.00 0.00 0.00 0.00 0.00 0.00 0.01 0.00 0.00 0.00 0.00 0.00 0.00 0.00 0.02 0.00 0.00 0.01 0.00 0.00 0.00 0.01 0.02 0.01 0.11 0.17 0.11 0.19 0.16 0.10 0.12 0.12 0.20 0.36 0.42 0.21 0.08
0.05 0.05 0.04 0.08 0.09 0.00 0.00 0.00 0.00 0.00 0.00 0.00 0.00 0.01 0.00 0.00 0.01 0.00 0.00 0.00 0.00 0.03 0.04 0.01 0.00 0.00 0.01 0.00 0.00 0.00 0.01 0.09 0.11 0.11 0.11 0.07 0.07 0.09 0.15 0.15 0.26 0.30 0.33 0.15
0.06 0.05 0.05 0.08 0.15 0.02 0.00 0.02 0.06 0.08 0.02 0.00 0.00 0.00 0.00 0.02 0.02 0.01 0.00 0.01 0.00 0.00 0.02 0.03 0.01 0.01 0.04 0.02 0.00 0.01 0.00 0.05 0.10 0.13 0.10 0.08 0.05 0.05 0.12 0.19 0.21 0.23 0.28 0.28
0.05 0.05 0.06 0.09 0.19 0.10 0.04 0.09 0.14 0.19 0.03 0.00 0.02 0.00 0.01 0.01 0.04 0.02 0.00 0.00 0.01 0.00 0.00 0.00 0.00 0.00 0.00 0.01 0.04 0.03 0.01 0.03 0.06 0.08 0.08 0.12 0.06 0.12 0.13 0.21 0.28 0.26 0.20 0.24
0.06 0.07 0.08 0.11 0.15 0.22 0.09 0.15 0.17 0.21 0.05 0.00 0.00 0.01 0.01 0.00 0.00 0.03 0.00 0.00 0.01 0.00 0.00 0.00 0.00 0.00 0.00 0.00 0.01 0.01 0.00 0.01 0.05 0.06 0.06 0.04 0.06 0.07 0.08 0.11 0.21 0.25 0.22 0.18
0.06 0.08 0.09 0.13 0.14 0.29 0.15 0.11 0.19 0.25 0.14 0.01 0.00 0.00 0.00 0.00 0.00 0.00 0.00 0.00 0.00 0.00 0.00 0.00 0.00 0.00 0.00 0.00 0.00 0.00 0.00 0.00 0.03 0.04 0.02 0.02 0.05 0.05 0.09 0.11 0.15 0.16 0.10 0.09
0.07 0.08 0.11 0.13 0.15 0.34 0.16 0.07 0.19 0.28 0.22 0.02 0.00 0.01 0.02 0.02 0.01 0.00 0.00 0.00 0.00 0.00 0.00 0.00 0.00 0.00 0.00 0.00 0.00 0.00 0.00 0.00 0.01 0.03 0.02 0.02 0.03 0.02 0.06 0.09 0.11 0.05 0.04 0.03
0.09 0.10 0.12 0.16 0.25 0.31 0.19 0.08 0.15 0.28 0.26 0.02 0.01 0.05 0.09 0.05 0.05 0.04 0.00 0.00 0.00 0.00 0.00 0.01 0.01 0.00 0.00 0.00 0.00 0.00 0.00 0.00 0.00 0.01 0.02 0.03 0.02 0.00 0.02 0.05 0.05 0.01 0.03 0.03
0.09 0.10 0.16 0.21 0.34 0.22 0.24 0.08 0.07 0.22 0.27 0.05 0.00 0.01 0.04 0.12 0.13 0.15 0.03 0.01 0.00 0.01 0.01 0.02 0.01 0.01 0.00 0.01 0.01 0.01 0.01 0.00 0.01 0.00 0.01 0.03 0.00 0.00 0.01 0.01 0.01 0.01 0.02 0.03
0.07 0.15 0.24 0.32 0.25 0.22 0.24 0.09 0.05 0.19 0.31 0.12 0.02 0.01 0.01 0.04 0.06 0.16 0.08 0.03 0.02 0.03 0.03 0.04 0.05 0.02 0.04 0.03 0.04 0.02 0.03 0.02 0.02 0.01 0.02 0.03 0.02 0.02 0.03 0.02 0.02 0.01 0.03 0.01
0.14 0.26 0.33 0.28 0.25 0.24 0.23 0.09 0.11 0.20 0.20 0.08 0.03 0.01 0.00 0.00 0.00 0.03 0.18 0.08 0.07 0.09 0.15 0.15 0.07 0.07 0.05 0.05 0.06 0.06 0.05 0.02 0.06 0.05 0.05 0.03 0.05 0.04 0.02 0.02 0.02 0.01 0.02 0.02
0.27 0.31 0.30 0.28 0.25 0.19 0.16 0.11 0.11 0.17 0.17 0.08 0.01 0.00 0.01 0.00 0.00 0.00 0.03 0.09 0.12 0.16 0.09 0.09 0.07 0.10 0.13 0.11 0.07 0.08 0.07 0.03 0.05 0.08 0.04 0.05 0.06 0.02 0.01 0.00 0.01 0.00 0.00 0.01
0.36 0.35 0.34 0.31 0.22 0.18 0.14 0.13 0.07 0.06 0.12 0.12 0.04 0.03 0.04 0.00 0.00 0.00 0.00 0.00 0.01 0.01 0.03 0.07 0.11 0.12 0.12 0.12 0.07 0.08 0.06 0.08 0.07 0.09 0.08 0.06 0.02 0.02 0.02 0.01 0.01 0.01 0.03 0.02
0.44 0.42 0.39 0.33 0.25 0.16 0.17 0.18 0.06 0.04 0.11 0.19 0.07 0.06 0.03 0.00 0.00 0.00 0.00 0.00 0.00 0.01 0.06 0.10 0.11 0.12 0.18 0.15 0.07 0.10 0.06 0.07 0.11 0.08 0.04 0.06 0.06 0.01 0.02 0.02 0.02 0.03 0.04 0.02
0.56 0.48 0.45 0.39 0.29 0.15 0.14 0.14 0.12 0.09 0.13 0.18 0.13 0.09 0.02 0.00 0.00 0.00 0.00 0.00 0.00 0.02 0.08 0.11 0.10 0.08 0.08 0.10 0.10 0.08 0.05 0.06 0.11 0.06 0.03 0.04 0.03 0.04 0.02 0.03 0.02 0.02 0.01 0.01
0.66 0.63 0.56 0.47 0.34 0.18 0.10 0.06 0.10 0.08 0.15 0.16 0.12 0.07 0.03 0.01 0.00 0.00 0.00 0.00 0.02 0.04 0.07 0.08 0.06 0.03 0.02 0.06 0.08 0.05 0.03 0.02 0.04 0.03 0.07 0.10 0.06 0.04 0.02 0.03 0.02 0.01 0.01 0.01
0.81 0.80 0.62 0.50 0.29 0.16 0.13 0.10 0.07 0.05 0.08 0.16 0.10 0.07 0.05 0.00 0.00 0.00 0.00 0.00 0.05 0.09 0.06 0.08 0.04 0.03 0.07 0.11 0.08 0.06 0.07 0.09 0.08 0.04 0.03 0.04 0.04 0.04 0.04 0.03 0.02 0.02 0.02 0.02
0.83 0.75 0.66 0.48 0.22 0.18 0.16 0.11 0.06 0.03 0.03 0.03 0.04 0.04 0.02 0.00 0.00 0.00 0.00 0.01 0.06 0.08 0.08 0.03 0.01 0.06 0.09 0.08 0.10 0.10 0.08 0.08 0.07 0.05 0.04 0.04 0.03 0.03 0.04 0.05 0.06 0.07 0.06 0.04
0.76 0.71 0.52 0.43 0.32 0.22 0.14 0.10 0.04 0.03 0.04 0.03 0.01 0.01 0.00 0.00 0.01 0.01 0.01 0.01 0.05 0.12 0.11 0.04 0.03 0.05 0.06 0.05 0.04 0.05 0.06 0.06 0.07 0.09 0.09 0.10 0.11 0.08 0.06 0.04 0.04 0.05 0.05 0.06
0.65 0.55 0.47 0.35 0.25 0.19 0.10 0.06 0.02 0.04 0.05 0.02 0.00 0.00 0.00 0.00 0.03 0.03 0.02 0.03 0.09 0.11 0.09 0.02 0.03 0.07 0.05 0.03 0.04 0.04 0.04 0.05 0.05 0.06 0.07 0.06 0.07 0.08 0.08 0.07 0.06 0.05 0.06 0.05
0.75 0.60 0.43 0.24 0.16 0.12 0.07 0.03 0.04 0.06 0.05 0.02 0.01 0.01 0.00 0.02 0.03 0.03 0.04 0.07 0.08 0.10 0.03 0.04 0.07 0.06 0.03 0.02 0.02 0.01 0.02 0.02 0.03 0.03 0.04 0.04 0.04 0.05 0.06 0.06 0.06 0.06 0.05 0.05
0.80 0.53 0.34 0.17 0.13 0.07 0.07 0.09 0.11 0.10 0.06 0.03 0.02 0.01 0.01 0.02 0.02 0.04 0.05 0.07 0.04 0.06 0.04 0.06 0.07 0.04 0.03 0.02 0.01 0.01 0.01 0.01 0.01 0.01 0.02 0.02 0.03 0.02 0.03 0.06 0.06 0.06 0.05 0.04
0.68 0.44 0.26 0.14 0.07 0.10 0.14 0.12 0.08 0.05 0.03 0.03 0.02 0.02 0.02 0.02 0.03 0.03 0.03 0.03 0.03 0.04 0.05 0.05 0.05 0.03 0.02 0.02 0.02 0.01 0.01 0.01 0.02 0.02 0.02 0.02 0.03 0.03 0.02 0.04 0.06 0.06 0.05 0.04
0.47 0.32 0.18 0.14 0.17 0.19 0.14 0.09 0.06 0.03 0.02 0.02 0.02 0.01 0.02 0.02 0.02 0.01 0.02 0.02 0.03 0.04 0.04 0.05 0.03 0.02 0.01 0.02 0.02 0.02 0.02 0.03 0.02 0.02 0.03 0.04 0.05 0.05 0.04 0.04 0.05 0.06 0.06 0.04
0.27 0.15 0.15 0.19 0.19 0.15 0.10 0.06 0.03 0.01 0.01 0.01 0.01 0.01 0.02 0.02 0.01 0.02 0.02 0.02 0.04 0.03 0.03 0.02 0.02 0.04 0.02 0.02 0.02 0.02 0.01 0.02 0.01 0.01 0.02 0.03 0.04 0.03 0.02 0.04 0.04 0.05 0.05 0.04

GFSNW_prec_precacc24_330.txt.gz
Total_Precipitation_Accumulation
0.03 0.03 0.04 0.03 0.02 0.00 0.00 0.00 0.00 0.00 0.00 0.00 0.00 0.00 0.00 0.00 0.00 0.00 0.00 0.00 0.01 0.04 0.02 0.02 0.00 0.02 0.03 0.00 0.04 0.07 0.09 0.16 0.06 0.15 0.26 0.22 0.20 0.26 0.43 0.47 0.65 0.48 0.17 0.18
0.03 0.04 0.03 0.04 0.03 0.00 0.00 0.00 0.00 0.00 0.00 0.00 0.00 0.00 0.00 0.00 0.00 0.00 0.00 0.00 0.01 0.01 0.00 0.04 0.00 0.00 0.00 0.00 0.04 0.13 0.08 0.09 0.06 0.05 0.12 0.04 0.09 0.10 0.23 0.34 0.62 0.51 0.24 0.17
0.04 0.04 0.04 0.06 0.06 0.01 0.00 0.00 0.00 0.00 0.00 0.00 0.00 0.01 0.00 0.00 0.00 0.00 0.00 0.00 0.00 0.02 0.00 0.00 0.01 0.00 0.00 0.00 0.01 0.01 0.01 0.08 0.11 0.06 0.13 0.11 0.05 0.04 0.09 0.16 0.31 0.42 0.22 0.09
0.05 0.04 0.04 0.07 0.09 0.01 0.00 0.00 0.00 0.00 0.00 0.00 0.00 0.01 0.00 0.00 0.01 0.00 0.00 0.00 0.00 0.03 0.03 0.00 0.00 0.00 0.00 0.00 0.00 0.00 0.00 0.08 0.08 0.05 0.10 0.07 0.06 0.06 0.11 0.12 0.22 0.28 0.31 0.13
0.05 0.05 0.05 0.08 0.16 0.02 0.00 0.02 0.05 0.07 0.02 0.00 0.00 0.00 0.00 0.02 0.02 0.01 0.00 0.00 0.00 0.00 0.02 0.01 0.01 0.01 0.03 0.01 0.00 0.00 0.00 0.04 0.09 0.08 0.08 0.08 0.07 0.06 0.11 0.13 0.16 0.19 0.24 0.26
0.05 0.05 0.05 0.09 0.20 0.11 0.04 0.08 0.13 0.17 0.03 0.00 0.02 0.00 0.01 0.01 0.04 0.03 0.00 0.00 0.01 0.00 0.00 0.00 0.00 0.00 0.00 0.01 0.03 0.03 0.02 0.01 0.04 0.07 0.07 0.10 0.06 0.10 0.11 0.18 0.21 0.21 0.17 0.22
0.05 0.06 0.07 0.11 0.15 0.25 0.13 0.15 0.17 0.22 0.07 0.01 0.01 0.01 0.01 0.00 0.00 0.04 0.00 0.00 0.02 0.00 0.00 0.00 0.00 0.00 0.00 0.00 0.01 0.01 0.01 0.01 0.03 0.04 0.02 0.02 0.06 0.07 0.07 0.10 0.19 0.21 0.19 0.17
0.05 0.07 0.08 0.13 0.15 0.35 0.24 0.14 0.23 0.30 0.17 0.01 0.00 0.00 0.01 0.01 0.00 0.00 0.00 0.00 0.00 0.00 0.00 0.00 0.00 0.00 0.00 0.00 0.00 0.00 0.01 0.01 0.01 0.01 0.00 0.02 0.03 0.05 0.07 0.10 0.13 0.14 0.10 0.08
0.06 0.07 0.09 0.12 0.17 0.43 0.32 0.14 0.25 0.38 0.30 0.03 0.00 0.02 0.02 0.05 0.03 0.01 0.00 0.00 0.00 0.00 0.00 0.00 0.00 0.00 0.00 0.00 0.00 0.00 0.00 0.00 0.00 0.02 0.01 0.01 0.01 0.01 0.03 0.08 0.10 0.05 0.04 0.03
0.07 0.08 0.09 0.14 0.28 0.41 0.40 0.21 0.19 0.45 0.40 0.04 0.00 0.05 0.11 0.10 0.08 0.08 0.00 0.00 0.00 0.00 0.00 0.00 0.00 0.00 0.00 0.00 0.00 0.00 0.00 0.00 0.01 0.01 0.03 0.03 0.02 0.00 0.02 0.04 0.04 0.01 0.02 0.03
0.06 0.08 0.14 0.20 0.39 0.34 0.50 0.31 0.13 0.39 0.48 0.11 0.00 0.00 0.05 0.20 0.19 0.21 0.08 0.05 0.01 0.01 0.01 0.01 0.00 0.00 0.00 0.00 0.01 0.01 0.01 0.01 0.01 0.01 0.03 0.03 0.01 0.00 0.01 0.01 0.01 0.01 0.02 0.03
0.07 0.15 0.23 0.35 0.35 0.42 0.53 0.36 0.14 0.37 0.62 0.23 0.03 0.02 0.01 0.07 0.13 0.25 0.17 0.06 0.04 0.03 0.02 0.03 0.05 0.02 0.03 0.03 0.04 0.02 0.03 0.02 0.02 0.01 0.02 0.03 0.02 0.02 0.03 0.02 0.01 0.01 0.02 0.01
0.17 0.30 0.37 0.37 0.42 0.46 0.53 0.38 0.26 0.43 0.53 0.24 0.10 0.04 0.01 0.03 0.06 0.12 0.29 0.15 0.11 0.12 0.13 0.12 0.06 0.05 0.05 0.05 0.06 0.06 0.05 0.02 0.06 0.05 0.05 0.04 0.05 0.03 0.02 0.02 0.01 0.01 0.02 0.02
0.39 0.42 0.43 0.47 0.47 0.44 0.44 0.38 0.26 0.38 0.51 0.32 0.08 0.00 0.01 0.00 0.01 0.06 0.13 0.18 0.16 0.18 0.09 0.08 0.07 0.07 0.12 0.11 0.07 0.08 0.07 0.03 0.05 0.08 0.05 0.05 0.06 0.02 0.01 0.00 0.01 0.00 0.00 0.01
0.50 0.51 0.57 0.59 0.52 0.47 0.36 0.32 0.26 0.19 0.33 0.40 0.18 0.07 0.05 0.00 0.02 0.06 0.07 0.06 0.06 0.03 0.03 0.05 0.09 0.11 0.11 0.12 0.06 0.08 0.06 0.08 0.07 0.09 0.08 0.07 0.03 0.02 0.02 0.01 0.01 0.01 0.03 0.02
0.58 0.60 0.62 0.62 0.56 0.45 0.31 0.47 0.24 0.14 0.29 0.45 0.20 0.10 0.03 0.00 0.01 0.03 0.03 0.01 0.01 0.02 0.05 0.08 0.10 0.11 0.15 0.13 0.06 0.09 0.06 0.07 0.11 0.08 0.04 0.06 0.06 0.02 0.02 0.02 0.02 0.03 0.04 0.02
0.66 0.64 0.66 0.64 0.56 0.27 0.30 0.41 0.24 0.20 0.28 0.32 0.21 0.15 0.04 0.00 0.01 0.02 0.01 0.00 0.00 0.02 0.07 0.09 0.08 0.07 0.06 0.09 0.08 0.07 0.05 0.06 0.11 0.06 0.03 0.04 0.03 0.04 0.02 0.02 0.02 0.02 0.01 0.01
0.74 0.77 0.78 0.74 0.56 0.32 0.27 0.24 0.31 0.27 0.28 0.25 0.19 0.12 0.07 0.04 0.05 0.03 0.01 0.02 0.02 0.04 0.07 0.07 0.05 0.02 0.01 0.05 0.07 0.05 0.03 0.02 0.04 0.03 0.07 0.10 0.06 0.04 0.02 0.02 0.02 0.02 0.01 0.01
0.91 0.93 0.75 0.65 0.47 0.30 0.21 0.23 0.23 0.18 0.15 0.22 0.16 0.11 0.14 0.06 0.03 0.02 0.00 0.00 0.03 0.08 0.05 0.07 0.03 0.02 0.05 0.09 0.07 0.05 0.06 0.08 0.07 0.04 0.03 0.03 0.04 0.04 0.03 0.02 0.02 0.02 0.01 0.01
0.94 0.79 0.76 0.64 0.35 0.25 0.25 0.23 0.16 0.12 0.09 0.07 0.06 0.09 0.11 0.05 0.02 0.01 0.00 0.01 0.05 0.07 0.07 0.02 0.01 0.05 0.07 0.06 0.08 0.08 0.07 0.06 0.06 0.04 0.03 0.04 0.02 0.02 0.03 0.04 0.05 0.06 0.06 0.04
0.81 0.79 0.64 0.58 0.44 0.30 0.22 0.18 0.09 0.06 0.06 0.06 0.03 0.03 0.04 0.02 0.03 0.02 0.02 0.01 0.04 0.10 0.10 0.03 0.02 0.04 0.05 0.03 0.03 0.03 0.04 0.04 0.05 0.08 0.08 0.09 0.09 0.07 0.05 0.03 0.03 0.04 0.05 0.05
0.70 0.63 0.57 0.46 0.34 0.27 0.17 0.11 0.04 0.05 0.08 0.05 0.02 0.03 0.03 0.03 0.04 0.03 0.02 0.03 0.07 0.09 0.08 0.01 0.02 0.05 0.03 0.02 0.02 0.02 0.03 0.03 0.03 0.05 0.05 0.05 0.06 0.07 0.06 0.06 0.05 0.04 0.05 0.05
0.88 0.72 0.53 0.32 0.22 0.17 0.10 0.04 0.05 0.08 0.10 0.07 0.06 0.04 0.02 0.02 0.03 0.03 0.03 0.05 0.07 0.09 0.02 0.03 0.05 0.04 0.02 0.01 0.01 0.01 0.01 0.01 0.02 0.02 0.03 0.04 0.04 0.04 0.06 0.05 0.05 0.05 0.04 0.05
0.98 0.66 0.43 0.22 0.17 0.09 0.08 0.10 0.13 0.15 0.11 0.08 0.05 0.03 0.02 0.02 0.02 0.03 0.04 0.06 0.03 0.05 0.02 0.04 0.04 0.03 0.02 0.01 0.01 0.00 0.00 0.00 0.01 0.01 0.01 0.01 0.02 0.02 0.03 0.05 0.05 0.05 0.04 0.03
0.88 0.57 0.32 0.16 0.08 0.10 0.15 0.17 0.15 0.12 0.08 0.06 0.03 0.02 0.02 0.02 0.02 0.02 0.02 0.01 0.02 0.02 0.03 0.03 0.03 0.02 0.02 0.01 0.01 0.01 0.01 0.01 0.01 0.01 0.01 0.02 0.02 0.02 0.02 0.04 0.05 0.06 0.05 0.04
0.63 0.41 0.21 0.15 0.17 0.22 0.20 0.16 0.12 0.08 0.04 0.02 0.02 0.01 0.01 0.01 0.01 0.00 0.01 0.01 0.01 0.02 0.02 0.03 0.02 0.01 0.01 0.01 0.01 0.01 0.01 0.02 0.01 0.01 0.02 0.03 0.04 0.04 0.04 0.04 0.05 0.06 0.06 0.04
0.37 0.18 0.16 0.21 0.23 0.22 0.17 0.11 0.07 0.03 0.01 0.00 0.00 0.01 0.01 0.01 0.01 0.01 0.01 0.01 0.02 0.02 0.01 0.01 0.02 0.03 0.02 0.01 0.01 0.01 0.01 0.01 0.00 0.00 0.01 0.02 0.03 0.02 0.02 0.03 0.04 0.05 0.06 0.04

GFSNW_prec_precacc24_333.txt.gz
Total_Precipitation_Accumulation
0.02 0.03 0.03 0.04 0.02 0.00 0.00 0.00 0.00 0.00 0.00 0.00 0.00 0.00 0.00 0.00 0.00 0.00 0.00 0.00 0.00 0.02 0.01 0.02 0.00 0.00 0.01 0.00 0.00 0.04 0.06 0.14 0.06 0.14 0.21 0.14 0.13 0.25 0.41 0.41 0.61 0.48 0.19 0.17
0.03 0.03 0.03 0.04 0.04 0.01 0.00 0.00 0.00 0.00 0.00 0.00 0.00 0.00 0.00 0.00 0.00 0.00 0.00 0.00 0.00 0.01 0.00 0.03 0.00 0.00 0.00 0.00 0.00 0.08 0.06 0.06 0.04 0.03 0.06 0.02 0.05 0.08 0.21 0.33 0.59 0.50 0.25 0.17
0.03 0.04 0.04 0.06 0.06 0.01 0.00 0.00 0.00 0.00 0.00 0.00 0.00 0.01 0.00 0.00 0.00 0.00 0.00 0.00 0.00 0.02 0.00 0.00 0.00 0.00 0.00 0.00 0.00 0.01 0.03 0.05 0.05 0.04 0.08 0.07 0.03 0.02 0.07 0.15 0.28 0.40 0.21 0.09
0.04 0.04 0.04 0.07 0.09 0.01 0.00 0.00 0.00 0.00 0.00 0.00 0.00 0.01 0.00 0.00 0.01 0.00 0.00 0.00 0.00 0.03 0.03 0.00 0.00 0.00 0.00 0.00 0.00 0.00 0.00 0.05 0.02 0.03 0.07 0.04 0.03 0.03 0.05 0.08 0.18 0.25 0.28 0.12
0.03 0.04 0.05 0.07 0.16 0.03 0.00 0.02 0.05 0.07 0.02 0.00 0.00 0.00 0.00 0.01 0.02 0.01 0.00 0.00 0.00 0.00 0.02 0.01 0.00 0.01 0.03 0.01 0.00 0.00 0.01 0.03 0.05 0.05 0.06 0.07 0.05 0.03 0.04 0.05 0.10 0.13 0.19 0.22
0.02 0.04 0.05 0.08 0.19 0.12 0.04 0.08 0.12 0.16 0.04 0.00 0.02 0.00 0.01 0.01 0.05 0.03 0.00 0.00 0.01 0.00 0.00 0.00 0.00 0.00 0.00 0.01 0.03 0.03 0.05 0.02 0.04 0.05 0.06 0.08 0.05 0.07 0.07 0.11 0.12 0.13 0.13 0.16
0.02 0.04 0.06 0.09 0.14 0.27 0.14 0.17 0.21 0.30 0.11 0.01 0.01 0.01 0.01 0.00 0.01 0.05 0.00 0.00 0.04 0.01 0.00 0.00 0.00 0.00 0.00 0.00 0.01 0.01 0.03 0.02 0.03 0.02 0.01 0.02 0.05 0.06 0.05 0.08 0.14 0.14 0.14 0.15
0.03 0.04 0.05 0.09 0.14 0.34 0.27 0.21 0.33 0.45 0.26 0.02 0.00 0.00 0.01 0.01 0.00 0.01 0.03 0.00 0.01 0.00 0.00 0.00 0.00 0.00 0.00 0.00 0.00 0.00 0.01 0.01 0.01 0.00 0.00 0.01 0.03 0.04 0.06 0.08 0.11 0.12 0.08 0.07
0.04 0.05 0.05 0.09 0.15 0.41 0.35 0.22 0.37 0.60 0.45 0.07 0.00 0.03 0.03 0.05 0.07 0.06 0.01 0.00 0.00 0.00 0.01 0.01 0.01 0.00 0.00 0.00 0.00 0.00 0.00 0.01 0.01 0.01 0.01 0.01 0.01 0.01 0.02 0.07 0.09 0.05 0.04 0.03
0.09 0.09 0.10 0.14 0.26 0.39 0.44 0.32 0.29 0.70 0.62 0.10 0.00 0.06 0.14 0.14 0.17 0.18 0.05 0.02 0.01 0.01 0.03 0.03 0.01 0.00 0.00 0.00 0.00 0.00 0.00 0.00 0.02 0.01 0.03 0.03 0.02 0.00 0.01 0.03 0.04 0.01 0.02 0.03
0.13 0.15 0.20 0.23 0.38 0.35 0.64 0.53 0.28 0.59 0.77 0.25 0.02 0.01 0.05 0.25 0.30 0.31 0.20 0.15 0.06 0.06 0.04 0.02 0.00 0.00 0.00 0.00 0.01 0.01 0.01 0.01 0.01 0.02 0.04 0.03 0.01 0.00 0.01 0.01 0.01 0.02 0.02 0.03
0.18 0.27 0.33 0.40 0.40 0.55 0.84 0.79 0.35 0.53 0.95 0.45 0.06 0.02 0.01 0.08 0.18 0.39 0.37 0.15 0.08 0.08 0.06 0.04 0.07 0.03 0.02 0.02 0.04 0.02 0.03 0.02 0.02 0.01 0.02 0.03 0.02 0.01 0.02 0.02 0.01 0.01 0.02 0.01
0.30 0.42 0.45 0.45 0.54 0.66 0.85 0.77 0.53 0.67 0.90 0.49 0.20 0.07 0.02 0.04 0.11 0.27 0.49 0.32 0.20 0.21 0.16 0.17 0.11 0.08 0.05 0.05 0.06 0.05 0.05 0.02 0.06 0.05 0.05 0.04 0.04 0.03 0.02 0.02 0.01 0.01 0.02 0.02
0.45 0.47 0.49 0.56 0.59 0.61 0.70 0.69 0.45 0.56 0.88 0.68 0.22 0.02 0.01 0.00 0.03 0.17 0.31 0.36 0.32 0.30 0.17 0.14 0.12 0.09 0.12 0.11 0.07 0.07 0.06 0.03 0.05 0.08 0.05 0.05 0.07 0.02 0.01 0.00 0.01 0.00 0.00 0.01
0.49 0.53 0.60 0.64 0.62 0.59 0.53 0.45 0.36 0.29 0.60 0.82 0.44 0.16 0.06 0.00 0.02 0.11 0.19 0.23 0.23 0.16 0.12 0.11 0.11 0.11 0.13 0.15 0.07 0.08 0.05 0.07 0.05 0.08 0.07 0.07 0.04 0.03 0.02 0.01 0.01 0.01 0.02 0.01
0.58 0.61 0.63 0.64 0.61 0.56 0.44 0.60 0.28 0.16 0.35 0.82 0.54 0.22 0.04 0.00 0.02 0.08 0.12 0.12 0.11 0.09 0.11 0.12 0.12 0.11 0.16 0.15 0.06 0.07 0.05 0.06 0.10 0.07 0.03 0.06 0.06 0.02 0.02 0.02 0.02 0.02 0.04 0.01
0.67 0.64 0.67 0.67 0.62 0.39 0.38 0.48 0.27 0.25 0.41 0.56 0.38 0.23 0.05 0.00 0.02 0.07 0.07 0.06 0.06 0.08 0.11 0.12 0.09 0.07 0.08 0.10 0.07 0.05 0.04 0.05 0.08 0.04 0.03 0.03 0.03 0.04 0.02 0.02 0.02 0.02 0.01 0.01
0.74 0.79 0.81 0.78 0.59 0.40 0.35 0.33 0.41 0.40 0.46 0.36 0.28 0.18 0.08 0.05 0.08 0.07 0.06 0.07 0.05 0.08 0.08 0.07 0.04 0.02 0.02 0.05 0.06 0.03 0.02 0.01 0.02 0.02 0.05 0.08 0.05 0.03 0.02 0.02 0.02 0.02 0.01 0.01
0.93 0.95 0.76 0.65 0.50 0.34 0.27 0.33 0.35 0.29 0.23 0.28 0.19 0.12 0.16 0.11 0.07 0.06 0.04 0.03 0.04 0.07 0.05 0.06 0.02 0.02 0.04 0.07 0.05 0.03 0.04 0.05 0.05 0.02 0.02 0.02 0.03 0.03 0.03 0.02 0.02 0.02 0.01 0.01
0.97 0.80 0.78 0.67 0.38 0.27 0.29 0.31 0.25 0.19 0.14 0.10 0.08 0.10 0.15 0.12 0.10 0.06 0.04 0.02 0.04 0.05 0.06 0.01 0.00 0.04 0.05 0.04 0.05 0.05 0.04 0.04 0.04 0.03 0.02 0.02 0.01 0.01 0.02 0.04 0.04 0.06 0.05 0.04
0.84 0.82 0.68 0.64 0.47 0.32 0.25 0.22 0.12 0.08 0.07 0.07 0.03 0.04 0.07 0.09 0.09 0.07 0.05 0.03 0.04 0.07 0.08 0.02 0.01 0.02 0.03 0.02 0.02 0.02 0.02 0.03 0.03 0.05 0.06 0.06 0.06 0.05 0.04 0.03 0.03 0.04 0.04 0.05
0.74 0.67 0.62 0.52 0.39 0.31 0.19 0.13 0.05 0.06 0.08 0.06 0.03 0.06 0.07 0.07 0.08 0.06 0.04 0.04 0.06 0.07 0.05 0.01 0.01 0.03 0.02 0.01 0.01 0.01 0.02 0.02 0.02 0.03 0.03 0.03 0.04 0.05 0.05 0.05 0.04 0.04 0.05 0.04
1.00 0.85 0.63 0.38 0.26 0.19 0.10 0.04 0.05 0.08 0.10 0.08 0.09 0.08 0.06 0.05 0.05 0.04 0.03 0.04 0.05 0.07 0.01 0.01 0.03 0.02 0.01 0.01 0.01 0.00 0.00 0.01 0.01 0.01 0.02 0.02 0.02 0.03 0.04 0.03 0.04 0.04 0.04 0.04
1.10 0.78 0.52 0.27 0.19 0.08 0.07 0.09 0.12 0.15 0.13 0.11 0.09 0.06 0.04 0.04 0.04 0.03 0.03 0.04 0.02 0.03 0.01 0.02 0.02 0.01 0.01 0.00 0.00 0.00 0.00 0.00 0.01 0.00 0.00 0.01 0.01 0.01 0.02 0.03 0.03 0.04 0.03 0.03
1.03 0.71 0.40 0.20 0.08 0.10 0.15 0.17 0.16 0.16 0.14 0.10 0.06 0.04 0.03 0.02 0.02 0.01 0.01 0.00 0.01 0.01 0.01 0.01 0.01 0.00 0.01 0.01 0.00 0.00 0.00 0.00 0.01 0.01 0.01 0.01 0.01 0.01 0.01 0.03 0.03 0.05 0.04 0.04
0.79 0.53 0.25 0.15 0.16 0.23 0.23 0.21 0.19 0.15 0.10 0.05 0.02 0.01 0.01 0.00 0.00 0.00 0.00 0.00 0.00 0.01 0.01 0.01 0.01 0.00 0.00 0.00 0.01 0.01 0.01 0.01 0.01 0.00 0.01 0.02 0.03 0.03 0.03 0.03 0.04 0.05 0.06 0.04
0.49 0.22 0.17 0.22 0.26 0.27 0.24 0.19 0.14 0.09 0.04 0.01 0.00 0.00 0.00 0.00 0.00 0.00 0.00 0.00 0.01 0.00 0.00 0.01 0.01 0.01 0.01 0.00 0.00 0.00 0.00 0.01 0.00 0.00 0.00 0.01 0.02 0.02 0.01 0.03 0.03 0.04 0.04 0.03

GFSNW_prec_precacc24_336.txt.gz
Total_Precipitation_Accumulation
0.02 0.03 0.03 0.04 0.02 0.01 0.00 0.00 0.00 0.00 0.00 0.00 0.00 0.00 0.00 0.00 0.00 0.00 0.00 0.00 0.00 0.02 0.01 0.02 0.00 0.00 0.00 0.00 0.00 0.02 0.04 0.12 0.05 0.10 0.14 0.08 0.11 0.22 0.36 0.29 0.49 0.43 0.19 0.15
0.01 0.03 0.03 0.05 0.04 0.02 0.00 0.00 0.00 0.00 0.00 0.00 0.00 0.00 0.00 0.00 0.00 0.00 0.00 0.00 0.00 0.00 0.00 0.02 0.00 0.00 0.00 0.00 0.00 0.06 0.06 0.04 0.02 0.02 0.03 0.01 0.02 0.06 0.20 0.31 0.48 0.41 0.25 0.15
0.01 0.03 0.04 0.06 0.07 0.02 0.00 0.00 0.00 0.00 0.00 0.00 0.00 0.01 0.00 0.00 0.00 0.00 0.00 0.00 0.00 0.02 0.00 0.00 0.00 0.00 0.00 0.00 0.00 0.01 0.04 0.04 0.02 0.03 0.06 0.05 0.02 0.01 0.07 0.14 0.23 0.27 0.19 0.08
0.01 0.02 0.03 0.06 0.09 0.01 0.01 0.00 0.00 0.00 0.00 0.00 0.00 0.01 0.00 0.00 0.00 0.00 0.00 0.00 0.00 0.02 0.03 0.00 0.00 0.00 0.00 0.00 0.00 0.00 0.00 0.04 0.01 0.02 0.04 0.03 0.02 0.01 0.04 0.07 0.15 0.17 0.25 0.11
0.02 0.02 0.03 0.05 0.14 0.03 0.01 0.02 0.04 0.05 0.02 0.00 0.00 0.00 0.00 0.01 0.01 0.01 0.00 0.00 0.00 0.00 0.02 0.00 0.00 0.01 0.02 0.01 0.00 0.00 0.01 0.02 0.04 0.03 0.05 0.06 0.04 0.01 0.02 0.04 0.07 0.09 0.15 0.21
0.02 0.02 0.03 0.05 0.18 0.13 0.05 0.07 0.11 0.13 0.05 0.01 0.02 0.01 0.00 0.00 0.05 0.03 0.00 0.00 0.03 0.01 0.00 0.00 0.00 0.00 0.00 0.00 0.03 0.04 0.07 0.03 0.04 0.04 0.04 0.06 0.05 0.03 0.03 0.06 0.09 0.09 0.08 0.13
0.03 0.03 0.03 0.05 0.11 0.26 0.15 0.16 0.20 0.30 0.13 0.03 0.01 0.01 0.01 0.00 0.01 0.05 0.01 0.02 0.12 0.03 0.00 0.01 0.01 0.00 0.00 0.00 0.01 0.02 0.05 0.04 0.04 0.02 0.00 0.01 0.02 0.03 0.02 0.03 0.08 0.09 0.10 0.11
0.04 0.05 0.05 0.07 0.10 0.31 0.28 0.21 0.34 0.49 0.32 0.04 0.02 0.00 0.01 0.02 0.01 0.03 0.05 0.02 0.03 0.06 0.08 0.06 0.02 0.00 0.00 0.00 0.00 0.00 0.01 0.04 0.03 0.01 0.00 0.01 0.02 0.02 0.03 0.05 0.07 0.07 0.06 0.05
0.10 0.10 0.12 0.16 0.21 0.37 0.38 0.25 0.39 0.72 0.59 0.14 0.01 0.03 0.04 0.08 0.11 0.12 0.03 0.00 0.04 0.10 0.10 0.08 0.05 0.00 0.00 0.00 0.00 0.01 0.01 0.03 0.04 0.01 0.01 0.01 0.01 0.01 0.02 0.04 0.06 0.04 0.03 0.02
0.20 0.21 0.23 0.28 0.33 0.44 0.56 0.42 0.35 0.94 0.89 0.16 0.01 0.06 0.14 0.17 0.22 0.31 0.12 0.05 0.08 0.07 0.11 0.10 0.04 0.01 0.00 0.00 0.00 0.01 0.01 0.03 0.05 0.02 0.05 0.03 0.02 0.00 0.01 0.03 0.03 0.01 0.02 0.03
0.27 0.31 0.36 0.38 0.45 0.53 0.91 0.76 0.40 0.90 1.14 0.38 0.03 0.01 0.06 0.26 0.37 0.42 0.35 0.31 0.15 0.12 0.11 0.06 0.02 0.02 0.00 0.00 0.00 0.01 0.01 0.03 0.03 0.04 0.07 0.04 0.01 0.00 0.01 0.01 0.01 0.01 0.02 0.02
0.25 0.33 0.40 0.43 0.50 0.72 1.17 1.14 0.43 0.76 1.42 0.71 0.09 0.02 0.01 0.07 0.19 0.52 0.63 0.27 0.14 0.18 0.14 0.09 0.14 0.07 0.04 0.01 0.03 0.01 0.03 0.02 0.03 0.02 0.02 0.03 0.02 0.01 0.02 0.01 0.01 0.01 0.02 0.01
0.31 0.42 0.43 0.46 0.58 0.77 1.07 0.97 0.62 0.88 1.27 0.74 0.26 0.08 0.02 0.05 0.12 0.34 0.74 0.56 0.31 0.35 0.23 0.26 0.20 0.16 0.07 0.06 0.06 0.05 0.05 0.03 0.07 0.06 0.05 0.03 0.04 0.03 0.02 0.02 0.01 0.01 0.02 0.02
0.44 0.45 0.49 0.57 0.61 0.66 0.79 0.81 0.52 0.70 1.20 0.96 0.30 0.03 0.02 0.01 0.06 0.25 0.50 0.60 0.51 0.44 0.32 0.28 0.20 0.13 0.14 0.13 0.07 0.07 0.06 0.04 0.07 0.10 0.04 0.05 0.07 0.03 0.01 0.00 0.01 0.00 0.00 0.01
0.48 0.53 0.60 0.64 0.63 0.62 0.57 0.50 0.40 0.34 0.77 1.08 0.58 0.22 0.07 0.01 0.03 0.15 0.29 0.40 0.43 0.33 0.27 0.23 0.18 0.14 0.15 0.17 0.09 0.08 0.04 0.06 0.06 0.08 0.05 0.05 0.04 0.03 0.02 0.01 0.01 0.01 0.02 0.01
0.58 0.61 0.63 0.64 0.62 0.59 0.47 0.64 0.30 0.17 0.40 1.05 0.70 0.27 0.04 0.00 0.02 0.09 0.17 0.22 0.25 0.24 0.21 0.19 0.16 0.14 0.19 0.19 0.07 0.05 0.04 0.05 0.08 0.05 0.02 0.04 0.06 0.02 0.02 0.02 0.01 0.02 0.04 0.01
0.67 0.65 0.68 0.68 0.63 0.42 0.44 0.50 0.27 0.26 0.46 0.74 0.49 0.26 0.05 0.01 0.03 0.08 0.11 0.12 0.15 0.17 0.19 0.16 0.11 0.09 0.14 0.14 0.07 0.04 0.03 0.05 0.06 0.03 0.02 0.02 0.02 0.03 0.01 0.02 0.02 0.02 0.01 0.01
0.75 0.80 0.82 0.79 0.60 0.42 0.40 0.38 0.47 0.44 0.57 0.49 0.36 0.20 0.08 0.06 0.08 0.08 0.09 0.12 0.11 0.13 0.12 0.09 0.05 0.04 0.06 0.07 0.04 0.02 0.02 0.01 0.01 0.01 0.04 0.06 0.03 0.02 0.01 0.02 0.02 0.01 0.01 0.01
0.93 0.96 0.77 0.67 0.52 0.35 0.31 0.41 0.44 0.38 0.32 0.36 0.22 0.12 0.16 0.12 0.07 0.08 0.06 0.06 0.07 0.08 0.05 0.05 0.03 0.02 0.02 0.04 0.03 0.02 0.02 0.03 0.03 0.01 0.01 0.01 0.02 0.02 0.02 0.01 0.01 0.02 0.01 0.01
1.02 0.83 0.83 0.74 0.41 0.31 0.34 0.38 0.32 0.27 0.18 0.15 0.10 0.11 0.16 0.13 0.11 0.09 0.08 0.05 0.04 0.04 0.04 0.01 0.00 0.02 0.03 0.02 0.03 0.02 0.02 0.02 0.02 0.02 0.01 0.01 0.01 0.01 0.02 0.02 0.03 0.04 0.04 0.03
0.91 0.89 0.76 0.71 0.51 0.34 0.29 0.26 0.15 0.10 0.07 0.07 0.04 0.04 0.08 0.11 0.11 0.10 0.09 0.05 0.04 0.05 0.05 0.01 0.00 0.01 0.02 0.01 0.01 0.01 0.01 0.01 0.02 0.03 0.04 0.04 0.05 0.04 0.03 0.02 0.02 0.03 0.03 0.04
0.89 0.79 0.71 0.60 0.45 0.37 0.25 0.18 0.07 0.06 0.08 0.06 0.03 0.06 0.08 0.09 0.11 0.09 0.06 0.04 0.05 0.05 0.03 0.00 0.00 0.02 0.01 0.00 0.01 0.01 0.01 0.01 0.01 0.01 0.02 0.02 0.02 0.03 0.04 0.04 0.03 0.03 0.03 0.03
1.07 0.96 0.80 0.52 0.38 0.29 0.15 0.05 0.05 0.08 0.10 0.08 0.09 0.09 0.07 0.08 0.08 0.06 0.04 0.03 0.04 0.04 0.01 0.01 0.01 0.01 0.00 0.00 0.00 0.00 0.00 0.00 0.00 0.00 0.01 0.01 0.01 0.01 0.02 0.02 0.03 0.03 0.03 0.03
1.23 0.87 0.58 0.30 0.22 0.12 0.09 0.09 0.12 0.15 0.13 0.11 0.09 0.09 0.07 0.07 0.06 0.04 0.03 0.03 0.01 0.01 0.01 0.01 0.01 0.01 0.00 0.00 0.00 0.00 0.00 0.00 0.00 0.00 0.00 0.00 0.01 0.00 0.01 0.02 0.03 0.03 0.02 0.02
1.18 0.83 0.49 0.27 0.10 0.11 0.16 0.19 0.17 0.18 0.16 0.12 0.09 0.08 0.06 0.04 0.03 0.01 0.01 0.00 0.00 0.00 0.00 0.00 0.00 0.00 0.00 0.00 0.00 0.00 0.00 0.00 0.00 0.00 0.00 0.00 0.01 0.01 0.01 0.02 0.03 0.04 0.03 0.03
0.87 0.59 0.29 0.18 0.19 0.26 0.26 0.26 0.23 0.20 0.15 0.11 0.06 0.04 0.02 0.01 0.00 0.00 0.00 0.00 0.00 0.00 0.00 0.00 0.00 0.00 0.00 0.00 0.00 0.00 0.00 0.00 0.00 0.00 0.00 0.01 0.01 0.02 0.02 0.02 0.03 0.04 0.05 0.03
0.57 0.25 0.19 0.24 0.27 0.29 0.27 0.22 0.19 0.15 0.10 0.06 0.02 0.01 0.00 0.00 0.00 0.00 0.00 0.00 0.00 0.00 0.00 0.00 0.00 0.00 0.00 0.00 0.00 0.00 0.00 0.00 0.00 0.00 0.00 0.01 0.01 0.01 0.01 0.02 0.03 0.03 0.04 0.03